TimeEDT,TemperatureF,Dew PointF,Humidity,Sea Level PressureIn,VisibilityMPH,Wind Direction,Wind SpeedMPH,Gust SpeedMPH,PrecipitationIn,Events,Conditions,WindDirDegrees,DateUTC
12:56 AM,73.9,71.1,91,30.18,8.0,NNE,5.8,-,N/A,,Clear,30,2013-09-11 04:56:00
1:56 AM,75.0,71.1,87,30.17,8.0,ENE,5.8,-,N/A,,Clear,60,2013-09-11 05:56:00
2:56 AM,73.9,71.1,91,30.16,7.0,NNE,4.6,-,N/A,,Clear,20,2013-09-11 06:56:00
3:56 AM,73.9,71.1,91,30.15,7.0,Calm,Calm,-,N/A,,Clear,0,2013-09-11 07:56:00
4:56 AM,73.9,72.0,93,30.16,8.0,ENE,5.8,-,N/A,,Clear,60,2013-09-11 08:56:00
5:56 AM,73.9,71.1,91,30.17,7.0,ENE,4.6,-,N/A,,Clear,70,2013-09-11 09:56:00
6:56 AM,73.0,71.1,93,30.16,6.0,ENE,6.9,-,N/A,,Scattered Clouds,60,2013-09-11 10:56:00
7:56 AM,73.9,71.1,91,30.17,5.0,NE,8.1,-,N/A,,Mostly Cloudy,50,2013-09-11 11:56:00
8:56 AM,75.9,73.0,91,30.19,6.0,NNE,5.8,-,N/A,,Mostly Cloudy,30,2013-09-11 12:56:00
9:56 AM,84.0,72.0,67,30.18,10.0,East,6.9,-,N/A,,Clear,90,2013-09-11 13:56:00
10:56 AM,86.0,71.1,61,30.19,10.0,ESE,9.2,-,N/A,,Mostly Cloudy,110,2013-09-11 14:56:00
11:56 AM,84.9,72.0,65,30.19,10.0,ESE,9.2,-,N/A,,Mostly Cloudy,120,2013-09-11 15:56:00
12:56 PM,84.0,72.0,67,30.17,10.0,SE,9.2,-,N/A,,Mostly Cloudy,130,2013-09-11 16:56:00
1:56 PM,84.9,70.0,61,30.17,10.0,SE,6.9,-,N/A,,Mostly Cloudy,130,2013-09-11 17:56:00
2:03 PM,84.9,69.1,59,30.16,10.0,SE,9.2,-,N/A,,Overcast,130,2013-09-11 18:03:00
2:56 PM,88.0,66.9,49,30.14,10.0,SE,9.2,-,N/A,Thunderstorm,Mostly Cloudy,140,2013-09-11 18:56:00
3:56 PM,86.0,66.0,51,30.12,10.0,ESE,10.4,-,N/A,,Mostly Cloudy,120,2013-09-11 19:56:00
4:56 PM,84.0,68.0,58,30.11,10.0,ESE,9.2,-,N/A,,Mostly Cloudy,120,2013-09-11 20:56:00
5:56 PM,84.9,69.1,59,30.10,10.0,ESE,5.8,-,N/A,,Mostly Cloudy,120,2013-09-11 21:56:00
6:56 PM,82.9,69.1,63,30.11,10.0,SE,6.9,-,N/A,,Mostly Cloudy,130,2013-09-11 22:56:00
7:56 PM,80.1,70.0,71,30.10,10.0,SE,3.5,-,N/A,,Mostly Cloudy,130,2013-09-11 23:56:00
8:56 PM,79.0,71.1,77,30.11,10.0,ESE,3.5,-,N/A,,Mostly Cloudy,110,2013-09-12 00:56:00
9:56 PM,78.1,71.1,79,30.10,10.0,Calm,Calm,-,N/A,,Mostly Cloudy,0,2013-09-12 01:56:00
10:56 PM,75.9,71.1,85,30.11,10.0,Calm,Calm,-,N/A,,Mostly Cloudy,0,2013-09-12 02:56:00
11:56 PM,75.9,71.1,85,30.10,10.0,North,3.5,-,N/A,,Clear,360,2013-09-12 03:56:00